AAL150 KVNY-KLAX

Flight info

Callsign AAL150
Flight time N/A
Altitude 10000
Route N/A
Aircraft B748/H-SDE3/L

Departure

Time 2026-04-21 02:23
Airport Van Nuys Airport (KVNY)

Arrival

Time N/A
Airport Los Angeles International Airport (KLAX)
Time Latitude Longitude Altitude Speed Heading
2026-04-21 02:21 34.21777 -118.49113 808 ft 0 kts 175°
2026-04-21 02:22 34.21481 -118.49078 802 ft 88 kts 174°
2026-04-21 02:22 34.20655 -118.49010 783 ft 162 kts 174°
2026-04-21 02:23 34.19397 -118.48867 899 ft 211 kts 174°
2026-04-21 02:23 34.17973 -118.48666 2230 ft 200 kts 172°
2026-04-21 02:23 34.16606 -118.48395 3100 ft 215 kts 173°
2026-04-21 02:23 34.14994 -118.47873 3397 ft 260 kts 159°
2026-04-21 02:24 34.13485 -118.46590 4176 ft 280 kts 129°
2026-04-21 02:24 34.13197 -118.44087 4603 ft 314 kts 58°
2026-04-21 02:24 34.15368 -118.42730 5129 ft 341 kts 11°
2026-04-21 02:24 34.17562 -118.42245 7536 ft 305 kts 11°
2026-04-21 02:25 34.19700 -118.41670 9155 ft 293 kts 15°
2026-04-21 02:25 34.21797 -118.40201 9126 ft 341 kts 52°
2026-04-21 02:25 34.22899 -118.37309 10133 ft 347 kts 88°
2026-04-21 02:25 34.22572 -118.34252 11738 ft 334 kts 107°
2026-04-21 02:26 34.21960 -118.31235 11796 ft 370 kts 107°
2026-04-21 02:26 34.21348 -118.28239 11780 ft 361 kts 107°
2026-04-21 02:26 34.20760 -118.25320 11764 ft 353 kts 107°
2026-04-21 02:26 34.20186 -118.22465 11714 ft 347 kts 107°
2026-04-21 02:27 34.19620 -118.19647 11527 ft 345 kts 107°
2026-04-21 02:27 34.19054 -118.16833 11335 ft 344 kts 107°
2026-04-21 02:27 34.18487 -118.14004 11152 ft 343 kts 107°
2026-04-21 02:27 34.17926 -118.11214 10964 ft 341 kts 107°
2026-04-21 02:28 34.17365 -118.08421 10742 ft 341 kts 107°
2026-04-21 02:28 34.16798 -118.05608 10531 ft 340 kts 107°
2026-04-21 02:28 34.16233 -118.02801 10355 ft 339 kts 107°
2026-04-21 02:28 34.15478 -118.00090 10077 ft 332 kts 124°
2026-04-21 02:29 34.13862 -117.98176 10065 ft 321 kts 154°
2026-04-21 02:29 34.12005 -117.97492 10051 ft 319 kts 178°
2026-04-21 02:29 34.09896 -117.97864 10058 ft 319 kts 197°
2026-04-21 02:29 34.07879 -117.98625 10053 ft 320 kts 197°
2026-04-21 02:30 34.05884 -117.99366 10036 ft 319 kts 197°
2026-04-21 02:30 34.03971 -118.00110 10034 ft 320 kts 197°
2026-04-21 02:30 34.02054 -118.00851 10025 ft 319 kts 197°
2026-04-21 02:30 34.00129 -118.01597 10025 ft 321 kts 197°
2026-04-21 02:31 33.98188 -118.02353 10025 ft 320 kts 197°
2026-04-21 02:31 33.96081 -118.03181 10019 ft 321 kts 197°
2026-04-21 02:31 33.93934 -118.04007 10019 ft 321 kts 197°
2026-04-21 02:31 33.91816 -118.04823 10019 ft 321 kts 197°
2026-04-21 02:32 33.89669 -118.05640 10020 ft 320 kts 197°
2026-04-21 02:32 33.87565 -118.06351 10010 ft 320 kts 186°
2026-04-21 02:32 33.85438 -118.06026 10044 ft 323 kts 158°
2026-04-21 02:32 33.83669 -118.04800 10054 ft 327 kts 148°
2026-04-21 02:33 33.81952 -118.03439 10029 ft 327 kts 148°
2026-04-21 02:33 33.80235 -118.02076 10019 ft 326 kts 148°
2026-04-21 02:33 33.78986 -118.01077 10017 ft 325 kts 148°
2026-04-21 02:33 33.78251 -118.00491 10017 ft 325 kts 148°
2026-04-21 02:34 33.76571 -117.99149 10016 ft 324 kts 148°
2026-04-21 02:34 33.74806 -117.97733 10016 ft 324 kts 148°
2026-04-21 02:34 33.73033 -117.96320 10017 ft 324 kts 148°
2026-04-21 02:34 33.71195 -117.94851 10019 ft 325 kts 147°
2026-04-21 02:35 33.69380 -117.93393 10019 ft 326 kts 148°
2026-04-21 02:35 33.67527 -117.91914 10018 ft 326 kts 148°
2026-04-21 02:35 33.65699 -117.90458 10022 ft 327 kts 148°
2026-04-21 02:35 33.64404 -117.89426 10022 ft 327 kts 148°
2026-04-21 02:36 33.61068 -117.86779 10022 ft 327 kts 148°
2026-04-21 02:36 33.59350 -117.85417 10023 ft 328 kts 148°
2026-04-21 02:36 33.57634 -117.84065 10030 ft 328 kts 148°
2026-04-21 02:37 33.55933 -117.82719 10024 ft 328 kts 148°
2026-04-21 02:37 33.50664 -117.78517 10022 ft 328 kts 148°
2026-04-21 02:38 33.48917 -117.77131 10019 ft 328 kts 147°
2026-04-21 02:38 33.47215 -117.75772 10015 ft 328 kts 148°